| time (UTC) | temp C | wind direction | speed KPH | gust KPH | rain 1hr cm | rain 24hr cm | rain mn cm | humidity % | barometer mb |
| 20260506153036 | 14 | 225 | 4.8 | 12.9 | 0.00 | 0.00 | 0.00 | 63 | 1015.3 |
| 20260506150016 | 14 | 225 | 3.2 | 11.3 | 0.00 | 0.00 | 0.00 | 65 | 1015.4 |
| 20260506143016 | 14 | 225 | 3.2 | 11.3 | 0.00 | 0.00 | 0.00 | 57 | 1015.4 |
| 20260506140016 | 14 | 68 | 3.2 | 14.5 | 0.00 | 0.00 | 0.00 | 58 | 1015.4 |
| 20260506133016 | 15 | 68 | 4.8 | 20.9 | 0.00 | 0.00 | 0.00 | 51 | 1015.4 |
| 20260506130016 | 15 | 0 | 4.8 | 14.5 | 0.00 | 0.00 | 0.00 | 50 | 1015.5 |
| 20260506123016 | 15 | 45 | 4.8 | 20.9 | 0.00 | 0.00 | 0.00 | 52 | 1015.4 |
| 20260506120016 | 15 | 338 | 6.4 | 24.1 | 0.00 | 0.00 | 0.00 | 51 | 1015.6 |
| 20260506113016 | 14 | 68 | 6.4 | 16.1 | 0.00 | 0.00 | 0.00 | 54 | 1015.7 |
| 20260506110016 | 13 | 45 | 8.0 | 17.7 | 0.00 | 0.00 | 0.00 | 51 | 1015.8 |
| 20260506103036 | 13 | 23 | 8.0 | 22.5 | 0.00 | 0.00 | 0.00 | 59 | 1015.7 |
| 20260506100016 | 12 | 45 | 8.0 | 22.5 | 0.00 | 0.00 | 0.00 | 62 | 1015.8 |
| 20260506093016 | 11 | 45 | 6.4 | 17.7 | 0.00 | 0.00 | 0.00 | 71 | 1015.8 |
| 20260506090036 | 10 | 23 | 4.8 | 12.9 | 0.00 | 0.00 | 0.00 | 77 | 1015.9 |
| 20260506083036 | 10 | 23 | 4.8 | 14.5 | 0.00 | 0.00 | 0.00 | 79 | 1015.9 |
| 20260506073016 | 9 | 45 | 4.8 | 17.7 | 0.00 | 0.00 | 0.00 | 83 | 1015.7 |
| 20260506043015 | 10 | 45 | 3.2 | 12.9 | 0.00 | 0.00 | 0.00 | 84 | 1014.6 |
| 20260506040017 | 10 | 45 | 4.8 | 16.1 | 0.00 | 0.00 | 0.00 | 82 | 1014.6 |
| 20260506033017 | 10 | 45 | 3.2 | 14.5 | 0.00 | 0.00 | 0.00 | 81 | 1014.5 |
| 20260506030017 | 11 | 45 | 3.2 | 12.9 | 0.00 | 0.00 | 0.00 | 82 | 1014.5 |
| 20260506023017 | 11 | 45 | 3.2 | 12.9 | 0.00 | 0.00 | 0.00 | 82 | 1014.3 |
| 20260506020017 | 11 | 23 | 3.2 | 8.0 | 0.00 | 0.00 | 0.00 | 81 | 1014.3 |
| 20260506013037 | 11 | 23 | 3.2 | 9.7 | 0.00 | 0.00 | 0.00 | 80 | 1014.5 |
| 20260506010037 | 11 | 0 | 3.2 | 9.7 | 0.00 | 0.00 | 0.00 | 79 | 1014.4 |
| 20260506003037 | 12 | 23 | 3.2 | 9.7 | 0.00 | 0.00 | 0.00 | 78 | 1014.4 |
| 20260506000037 | 12 | 0 | 3.2 | 11.3 | 0.00 | 0.00 | 0.00 | 77 | 1014.5 |
| 20260505233017 | 12 | 0 | 3.2 | 11.3 | 0.00 | 0.00 | 0.00 | 76 | 1014.5 |
| 20260505230017 | 12 | 0 | 3.2 | 12.9 | 0.00 | 0.00 | 0.00 | 75 | 1014.5 |
| 20260505223037 | 12 | 338 | 3.2 | 11.3 | 0.00 | 0.00 | 0.00 | 73 | 1014.5 |
| 20260505220017 | 13 | 0 | 4.8 | 12.9 | 0.00 | 0.00 | 0.00 | 72 | 1014.5 |
| 20260505213017 | 13 | 0 | 4.8 | 11.3 | 0.00 | 0.00 | 0.00 | 71 | 1014.5 |
| 20260505210017 | 13 | 0 | 3.2 | 11.3 | 0.00 | 0.00 | 0.00 | 72 | 1014.4 |
| 20260505203017 | 13 | 23 | 3.2 | 9.7 | 0.00 | 0.00 | 0.00 | 71 | 1014.4 |
| 20260505200017 | 14 | 23 | 3.2 | 11.3 | 0.00 | 0.00 | 0.00 | 71 | 1014.3 |
| 20260505193016 | 14 | 45 | 3.2 | 12.9 | 0.00 | 0.00 | 0.00 | 71 | 1014.2 |
| 20260505190016 | 14 | 45 | 3.2 | 14.5 | 0.00 | 0.00 | 0.00 | 70 | 1013.9 |
| 20260505183036 | 15 | 0 | 6.4 | 17.7 | 0.00 | 0.00 | 0.00 | 69 | 1013.8 |
| 20260505180017 | 15 | 23 | 6.4 | 16.1 | 0.00 | 0.00 | 0.00 | 67 | 1013.8 |
| 20260505173016 | 15 | 0 | 3.2 | 16.1 | 0.00 | 0.00 | 0.00 | 67 | 1013.8 |
| 20260505170016 | 15 | 23 | 4.8 | 16.1 | 0.00 | 0.00 | 0.00 | 68 | 1013.9 |
| 20260505163016 | 16 | 0 | 6.4 | 17.7 | 0.00 | 0.00 | 0.00 | 66 | 1014.0 |